Regional Weather Roundup
Issued by NWS Sioux Falls, SD

Home | Current Version | Previous Version | Text Only | Print | Product List | Glossary Off
Versions: 1 2 3 4 5 6 7 8 9 10 11 12 13 14 15 16 17 18 19 20 21 22 23 24 25 26 27 28 29 30 31 32 33 34 35 36 37 38 39 40 41 42 43 44 45 46 47 48 49 50

381
ASUS43 KFSD 241310
RWRFSD

WEATHER ROUNDUP FOR SE SOUTH DAKOTA/SW MINNESOTA/NW IOWA
NATIONAL WEATHER SERVICE SIOUX FALLS SD
800 AM CDT TUE APR 24 2018

NOTE: "FAIR" INDICATES FEW OR NO CLOUDS BELOW 12,000 FEET WITH NO
SIGNIFICANT WEATHER AND OR OBSTRUCTIONS TO VISIBILITY.


SDZ038>040-050-052>070-241400-
SOUTHEAST SOUTH DAKOTA

CITY           SKY/WX    TMP DP  RH WIND       PRES   REMARKS
BROOKINGS      CLOUDY    47  38  71 N10       30.20R
CHAMBERLAIN    CLOUDY    49  48  99 CALM      30.17R
HURON          LGT RAIN  46  42  86 NE17G24   30.21R FOG
MADISON        PTSUNNY   46  46 100 N10       30.19R
MITCHELL       LGT RAIN  50  46  86 NE8       30.18R
SIOUX FALLS    CLOUDY    48  41  76 CALM      30.17R
WINNER         CLOUDY    46  41  82 NW17G29   30.18R
YANKTON        MOSUNNY   48  43  82 CALM      30.16R
$$

MNZ071-072-080-081-089-090-097-098-241400-
SOUTHWEST MINNESOTA

CITY           SKY/WX    TMP DP  RH WIND       PRES   REMARKS
FAIRMONT       SUNNY     42  38  85 NW3       30.16R
JACKSON        SUNNY     43  37  81 CALM      30.15S
LUVERNE        CLOUDY    45  36  70 NE5       30.17R
MARSHALL       PTSUNNY   44  41  89 NW14      30.20R
MONTEVIDEO     CLOUDY    45  37  76 N10       30.21R
PIPESTONE      CLOUDY   N/A N/A N/A CALM      30.17R
REDWOOD FALLS  PTSUNNY   48  42  80 NW9       30.16R
TRACY          CLOUDY    46  43  90 NW8       30.17R
WINDOM         CLOUDY    45  28  53 NW3       30.16R
WORTHINGTON    CLOUDY    45  40  82 W3        30.17R
$$

IAZ001>003-012>014-020>022-031-032-NEZ013-014-SDZ071-241400-
NORTHWEST IOWA

CITY           SKY/WX    TMP DP  RH WIND       PRES   REMARKS
CHEROKEE       PTSUNNY   42  41  95 CALM      30.15R
DENISON        SUNNY     45  43  93 CALM      30.15R
ESTHERVILLE    SUNNY     42  38  85 NW6       30.14R
LE MARS        CLOUDY    45  39  81 CALM      30.15R
ORANGE CITY    PTSUNNY   52  43  71 CALM      30.15R
SHELDON        CLOUDY    45  43  93 NE3       30.14R
SIOUX CITY     MOSUNNY   45  40  82 CALM      30.14R
SPENCER        SUNNY     45  40  82 CALM      30.15R
STORM LAKE     SUNNY     52  41  66 CALM      30.14R
$$

ABBREVIATIONS USED IN REMARKS
   TC - TEMPERATURE IN CELSIUS
  WCI - WIND CHILL INDEX
   HX - HEAT INDEX
  VSB - VISIBILITY





USA.gov is the U.S. government's official web portal to all federal, state and local government web resources and services.